CW7229 Weather Reports


Display with metric or nautical units.
time (UTC)temp
F
wind
direction
speed
MPH
gust
MPH
rain 1hr
in
rain 24hr
in
rain mn
in
humidity
%
barometer
mb
20260508003114 42 296 0.0 0.0 0.00 0.16 0.00 71 1017.0
20260507233114 44 296 0.0 0.0 0.00 0.19 0.00 70 1017.0
20260507230114 44 287 0.0 0.0 0.00 0.19 0.00 69 1017.0
20260507223114 45 287 0.0 0.0 0.00 0.21 0.00 69 1016.9
20260507220114 46 287 0.0 0.0 0.00 0.21 0.00 69 1016.9
20260507213114 47 287 0.0 0.0 0.00 0.24 0.24 68 1015.9
20260507210114 47 287 0.0 0.0 0.00 0.24 0.24 68 1015.9
20260507203114 48 287 0.0 0.0 0.00 0.30 0.24 67 1015.9
20260507200113 48 287 0.0 0.0 0.00 0.30 0.24 67 1015.8
20260507193114 49 259 0.0 0.0 0.00 0.48 0.24 65 1015.8
20260507190114 49 277 0.0 0.0 0.00 0.48 0.24 64 1015.8
20260507183113 49 246 0.0 0.0 0.00 0.53 0.24 62 1014.8
20260507173114 49 17 0.0 0.0 0.00 0.58 0.24 61 1014.8
20260507170132 49 17 0.0 0.0 0.00 0.58 0.24 61 1014.8
20260507163113 49 17 0.0 0.0 0.00 0.62 0.24 61 1014.8
20260507160113 49 335 0.0 0.0 0.00 0.62 0.24 61 1014.8
20260507153113 49 360 0.0 4.0 0.00 0.64 0.24 59 1014.8
20260507150113 50 59 0.0 0.0 0.01 0.64 0.24 59 1014.8
20260507143113 50 67 0.0 0.0 0.01 0.72 0.24 63 1013.8
20260507140113 49 360 0.0 0.0 0.00 0.71 0.23 64 1014.8
20260507133113 48 353 0.0 2.0 0.00 0.79 0.23 65 1013.8
20260507130113 48 61 4.0 8.0 0.00 0.79 0.23 61 1013.8
20260507123113 48 360 3.0 6.0 0.00 0.82 0.23 58 1013.8
20260507113113 48 73 4.0 5.0 0.00 0.84 0.23 59 1013.8
20260507110114 48 84 0.0 0.0 0.00 0.84 0.23 61 1012.8
20260507103113 48 97 5.0 8.0 0.00 0.88 0.23 60 1012.8
20260507100113 48 77 6.0 8.0 0.00 0.88 0.23 65 1012.8
20260507093113 47 83 7.0 10.0 0.00 0.92 0.23 64 1011.8
20260507090113 47 44 5.0 8.0 0.00 0.92 0.23 66 1011.8
20260507083113 47 58 6.0 8.0 0.01 0.95 0.23 67 1011.8
20260507080113 47 37 7.0 9.0 0.01 0.95 0.23 70 1010.8
20260507070113 47 87 4.0 8.0 0.01 0.99 0.23 79 1010.8
20260507063113 47 46 7.0 11.0 0.01 1.08 0.23 79 1009.8
20260507060132 46 25 2.0 8.0 0.01 1.07 0.21 80 1009.8
20260507053113 46 105 6.0 9.0 0.01 1.23 0.21 81 1009.8
20260507050132 46 49 5.0 9.0 0.02 1.22 0.21 82 1008.8
20260507043113 46 74 5.0 8.0 0.04 1.39 0.21 82 1008.8
20260507033113 47 89 4.0 8.0 0.03 1.47 0.16 82 1008.8
20260507030113 47 79 6.0 11.0 0.05 1.46 0.15 82 1008.8
20260507023113 48 36 8.0 12.0 0.05 1.62 0.14 83 1007.8
20260507020112 49 79 4.0 8.0 0.03 1.58 0.10 83 1007.8
20260507013112 49 360 5.0 8.0 0.01 1.71 0.08 83 1007.7
20260507010113 49 71 6.0 10.0 0.03 1.71 0.08 83 1006.7